Home   Weather   Lucerne   Past weeks

Flag for Switzerland Past Weather in Lucerne, Lucerne, Switzerland — Yesterday and Last 2 Weeks

Now
39 °F

Chilly.


Feels Like: 39 °F
Forecast: 23 / 40 °F
Wind: 1 mph from Southeast

Location: Giswil

Current Time: Dec 3, 2016 at 2:42:04 pm

Latest Report: Dec 3, 2016 at 2:00 pm


Visibility: N/A

Pressure: 30.15 "Hg

Humidity: 71%

Dew Point: 31 °F

Location of LucerneLocation

Past Weather in Lucerne — Graph

°F

Lucerne Temperature Yesterday

Maximum temperature yesterday: 40 °F (at 3:00 pm)
Minimum temperature yesterday: 23 °F (at 5:00 am)
Average temperature yesterday: 28 °F

High & Low Weather Summary for the Past Weeks

 TemperatureHumidityPressure
High71 °F (Nov 21, 2:00 pm)100% (Nov 18, 10:00 pm)30.67 "Hg (Nov 18, 10:00 pm)
Low21 °F (Dec 3, 6:00 am)24% (Nov 21, 12:00 pm)29.47 "Hg (Nov 21, 10:00 am)
Average40 °F88%30.08 "Hg
* Reported Nov 18 1:00 pm — Dec 3 1:00 pm, Lucerne, Weather by CustomWeather, © 2016

Note: Actual official high and low records may vary slightly from our data, if they occured in-between our weather recording intervals... More about our weather records

Advertising

Lucerne Weather History for the Previous 24 Hours

Scroll right to see more
 ConditionsComfort  
Time TempWeatherWind HumidityBarometerVisibility
1:00 pm
Sat, Dec 3
37 °FChilly.1 mph82%30.16 "HgN/A
12:00 pm34 °FChilly.2 mph95%30.19 "HgN/A
11:00 am32 °FChilly.No wind96%30.20 "HgN/A
10:00 am30 °FChilly.No wind99%30.20 "HgN/A
9:00 am28 °FChilly.No wind100%30.20 "HgN/A
8:00 am23 °FCold.No wind99%30.21 "HgN/A
7:00 am21 °FCold.1 mph99%30.21 "HgN/A
6:00 am21 °FCold.1 mph99%30.21 "HgN/A
5:00 am22 °FCold.No wind100%30.21 "HgN/A
4:00 am21 °FCold.1 mph99%30.21 "HgN/A
3:00 am22 °FCold.2 mph99%30.22 "HgN/A
2:00 am22 °FCold.2 mph100%30.21 "HgN/A
1:00 am22 °FCold.2 mph99%30.22 "HgN/A
12:00 am23 °FCold.1 mph99%30.22 "HgN/A
11:00 pm
Fri, Dec 2
23 °FCold.No wind99%30.23 "HgN/A
10:00 pm24 °FCold.1 mph100%30.23 "HgN/A
9:00 pm25 °FChilly.1 mph99%30.23 "HgN/A
8:00 pm25 °FChilly.2 mph99%30.24 "HgN/A
7:00 pm28 °FChilly.1 mph99%30.22 "HgN/A
6:00 pm28 °FChilly.2 mph100%30.23 "HgN/A
5:00 pm29 °FChilly.2 mph98%30.22 "HgN/A
4:00 pm33 °FChilly.2 mph86%30.20 "HgN/A
3:00 pm40 °FChilly.1 mph65%30.18 "HgN/A
2:00 pm39 °FChilly.2 mph71%30.20 "HgN/A
Weather by CustomWeather, © 2016

See weather overviewHow to use our weather pages